星链-4540 (STARLINK-4540 )

导读 | 豆包AI

STARLINK-4540是美国太空探索技术公司(SpaceX)星链(Starlink)星座中的一颗卫星,于2022年8月10日发射升空。星链项目旨在构建全球卫星互联网星座,为全球范围提供高速互联网接入服务,该卫星是星链部署计划中批量发射组网的卫星之一。

Basic Information
目录编号:
53428
目录名称:
STARLINK-4540
国际标识:
2022-097AS
轨道中心:
EARTH
卫星名称:
星链-4540
卫星全名:
星链-4540 (STARLINK-4540 )
卫星状态:
已陨落 最后检测时间 2024-12-28
发射日期:
2022-08-10 UTC
国别 :
美国 (US)
星等 :
--
Orbit Information
数据来源 国际轨道数据
星历时间: 2024-12-29T08:24:29+0800
轨道信息已过期441天
半长轴: 6558.322km
偏心率: 0.000677
轨道倾角: 53.205°
近地点辐角 217.565°
升交点赤经 239.711°
平近点角 175.302°
近地点: 175.747km
远地点: 184.627km
周期: 88.095分钟
每日圈数: 16.346082
Detailed Information
固有亮度:
5
最大亮度:
2.5
卫星平台:
Starlink v1.5
覆盖范围:
全球
运营商:
太空探索技术公司
运营商所在国:
美国
制造商(研发单位):
太空探索技术公司
制造商所在国:
美国
使用方式:
暂无
Satellite Introduction
星链(Starlink)计划是由太空探索技术公司(SpaceX)提出的一个巨型低轨卫星互联网星座项目,计划在2019年至2024年间在太空搭建由约1.2万颗卫星组成的“星链”网络,其中1584颗将部署在地球上空550千米处的近地轨道,并从2020年开始工作。该卫星仍在工作。